Regional Weather Roundup
Issued by NWS

Home | Current Version | Previous Version | Graphics & Text | Print | Product List | Glossary On
Versions: 1 2 3 4 5 6 7 8 9 10 11 12 13 14 15 16 17 18 19 20 21 22 23 24 25 26 27 28 29 30 31 32 33 34 35 36 37 38 39 40 41 42 43 44 45 46 47 48 49 50
000
ASUS43 KBIS 020002
RWRND

NORTH DAKOTA REGIONAL WEATHER ROUNDUP
NATIONAL WEATHER SERVICE BISMARCK ND
600 PM CST THU DEC 01 2016

NOTE: "FAIR" INDICATES FEW OR NO CLOUDS BELOW 12,000 FEET WITH NO
SIGNIFICANT WEATHER AND/OR OBSTRUCTIONS TO VISIBILITY.


NDZ001>003-009>011-017-020100-
NORTHWEST NORTH DAKOTA

CITY           SKY/WX    TMP DP  RH WIND       PRES   REMARKS
WILLISTON      CLOUDY    29  24  82 S3        30.02R
6HR MIN TEMP:  29; 6HR MAX TEMP:  31;

MINOT          CLOUDY    28  22  78 E3        30.04R
MINOT AFB      CLOUDY    27  23  85 CALM      30.04R
$$

NDZ018>021-031>035-040>046-020100-
SOUTHWEST NORTH DAKOTA

CITY           SKY/WX    TMP DP  RH WIND       PRES   REMARKS
BISMARCK       CLOUDY    29  26  89 NE7       30.03R
6HR MIN TEMP:  29; 6HR MAX TEMP:  31; 6HR PCP:  0.02;

DICKINSON      CLOUDY    25  22  88 CALM      29.98R
GARRISON         N/A     27  25  92 CALM      30.02R
6HR MIN TEMP:  27; 6HR MAX TEMP:  31;

HETTINGER ARPT CLOUDY    26  23  88 NE3       30.00R
$$

NDZ004>008-012>016-024-026-027-054-020100-
NORTHEAST NORTH DAKOTA

CITY           SKY/WX    TMP DP  RH WIND       PRES   REMARKS
GRAND FORKS    CLOUDY    30  24  78 N14       30.03R WCI  19
GRND FRKS AFB  CLOUDY    29  24  82 NE17      30.04R WCI  17
DEVILS LAKE    CLOUDY    27  23  85 N8G18     30.04R WCI  19
$$

NDZ022-023-025-028>030-036>039-047>053-020100-
SOUTHEAST NORTH DAKOTA

CITY           SKY/WX    TMP DP  RH WIND       PRES   REMARKS
FARGO          CLOUDY    30  24  78 NW10      30.02R
6HR MIN TEMP:  30; 6HR MAX TEMP:  33; 6HR PCP: TRACE;

JAMESTOWN      CLOUDY    27  23  85 N8        30.02R WCI  19
$$





USA.gov is the U.S. government's official web portal to all federal, state and local government web resources and services.